Madison, WI

11:44 PM CDT on April 23, 2017 (GMT -0500)
Dane County Regional-Truax

Weather History for KMSN - May, 2013

Change the Weather History Date:

Sunday, May 12, 2013

  Actual Average Record
Temperature  
Mean Temperature 46 °F 56 °F  
Max Temperature 55 °F 67 °F 86 °F (1991)
Min Temperature 36 °F 45 °F 24 °F (1981)
Degree Days  
Heating Degree Days 19 10  
Month to date heating degree days 122 133  
Since 1 July heating degree days 7091 7140  
Cooling Degree Days 0 1  
Month to date cooling degree days 2 2  
Year to date cooling degree days 10 6  
Moisture  
Dew Point 24 °F    
Average Humidity 48    
Maximum Humidity 70    
Minimum Humidity 26    
Precipitation  
Precipitation 0.00 in 0.11 in 1.84 in (1970)
Month to date precipitation 2.50 1.31  
Year to date precipitation 16.02 9.59  
Snow  
Snow 0.00 in 0.10 in T in (2006)
Month to date snowfall 0.0 0.2  
Since 1 July snowfall 70.6 50.9  
Snow Depth 0.00 in    
Sea Level Pressure  
Sea Level Pressure 30.11 in    
Wind  
Wind Speed 8 mph (NW)    
Max Wind Speed 18 mph    
Max Gust Speed 28 mph    
Visibility 10 miles    
Events      
T = Trace of Precipitation, MM = Missing Value Source: NWS Daily Summary

Daily Weather History Graph

Daily Weather History Graph

Search for Another Location

Airport or City:

Trip Planner

Search our weather history database for the weather conditions in past years. The results will help you decide how hot, cold, wet, or windy it might be!

Date:

Astronomy

May. 12, 2013 Rise Set
Actual Time 5:36 AM CDT 8:11 PM CDT
Civil Twilight 5:04 AM CDT 8:43 PM CDT
Nautical Twilight 4:23 AM CDT 9:24 PM CDT
Astronomical Twilight 3:37 AM CDT 10:10 PM CDT
Moon 7:30 AM CDT (5/12) 10:39 PM CDT (5/12)
Length of Visible Light 15h 39m
Length of Day
14h 34m
Waxing Crescent, 7% of the Moon is Illuminated
May 12
Waxing Crescent
May 17
First Quarter
May 24
Full
May 31
Last Quarter
Jun 8
New

Hourly Weather History & Observations

Time (CDT) Temp. Windchill Dew Point Humidity Pressure Visibility Wind Dir Wind Speed Gust Speed Precip Events Conditions
12:53 AM 41.0 °F 35.8 °F 30.0 °F 65% 30.09 in 10.0 mi NW 8.1 mph - 0.00 in   Overcast
1:53 AM 41.0 °F 33.9 °F 27.0 °F 57% 30.09 in 10.0 mi NNW 12.7 mph 25.3 mph N/A   Mostly Cloudy
2:53 AM 39.9 °F 33.9 °F 25.0 °F 55% 30.09 in 10.0 mi NNW 9.2 mph 18.4 mph N/A   Clear
3:53 AM 39.0 °F 32.3 °F 25.0 °F 57% 30.10 in 10.0 mi NW 10.4 mph 19.6 mph N/A   Clear
4:53 AM 37.9 °F 30.9 °F 23.0 °F 55% 30.10 in 10.0 mi NNW 10.4 mph 25.3 mph N/A   Clear
5:53 AM 36.0 °F 33.3 °F 24.1 °F 62% 30.12 in 10.0 mi WNW 3.5 mph - N/A   Partly Cloudy
6:53 AM 37.9 °F 32.7 °F 25.0 °F 60% 30.13 in 10.0 mi WNW 6.9 mph - N/A   Partly Cloudy
7:53 AM 39.9 °F 32.1 °F 25.0 °F 55% 30.13 in 10.0 mi North 13.8 mph 20.7 mph N/A   Partly Cloudy
8:53 AM 42.1 °F 34.5 °F 25.0 °F 51% 30.14 in 10.0 mi NNW 15.0 mph 23.0 mph N/A   Scattered Clouds
9:53 AM 42.8 °F 37.0 °F 24.8 °F 49% 30.13 in 10.0 mi NW 10.4 mph 18.4 mph N/A   Scattered Clouds
10:53 AM 45.0 °F 38.9 °F 25.0 °F 46% 30.14 in 10.0 mi NW 12.7 mph 25.3 mph N/A   Scattered Clouds
11:53 AM 46.9 °F - 24.1 °F 41% 30.14 in 10.0 mi NNW 15.0 mph 23.0 mph N/A   Mostly Cloudy
12:53 PM 48.9 °F - 25.0 °F 39% 30.13 in 10.0 mi NNW 9.2 mph 27.6 mph N/A   Mostly Cloudy
1:53 PM 50.0 °F - 23.0 °F 35% 30.12 in 10.0 mi WNW 10.4 mph 19.6 mph N/A   Mostly Cloudy
2:53 PM 52.0 °F - 23.0 °F 32% 30.11 in 10.0 mi NW 12.7 mph 19.6 mph N/A   Scattered Clouds
3:53 PM 54.0 °F - 21.9 °F 29% 30.09 in 10.0 mi Variable 6.9 mph 23.0 mph N/A   Scattered Clouds
4:53 PM 54.0 °F - 21.0 °F 28% 30.09 in 10.0 mi NW 11.5 mph 21.9 mph N/A   Partly Cloudy
5:53 PM 54.0 °F - 21.9 °F 29% 30.08 in 10.0 mi NW 11.5 mph - N/A   Scattered Clouds
6:53 PM 53.1 °F - 19.9 °F 27% 30.08 in 10.0 mi NNW 9.2 mph - N/A   Partly Cloudy
7:53 PM 50.0 °F - 21.0 °F 32% 30.08 in 10.0 mi NW 8.1 mph - N/A   Partly Cloudy
8:53 PM 46.9 °F - 24.1 °F 41% 30.10 in 10.0 mi WNW 3.5 mph - N/A   Partly Cloudy
9:53 PM 44.1 °F - 25.0 °F 47% 30.12 in 10.0 mi Calm Calm - N/A   Clear
10:53 PM 39.9 °F - 27.0 °F 60% 30.12 in 10.0 mi Calm Calm - N/A   Clear
11:53 PM 37.0 °F - 28.9 °F 73% 30.12 in 10.0 mi Calm Calm - N/A   Clear